AF598 LFPG-GQNO

Flight info

Callsign AF598
Flight time N/A
Altitude 35000
Route LGL UT176 TERPO UN872 ERIGA DCT FUJTI/N0466F370 DCT BAKUP DCT BATAX DCT BABEX DCT ABRAT DCT EXONA DCT TAKAV DCT ROLRO DCT SOLNA L660 LAY Y601 KEMUL/N0463F380 Y601 GUPEL GUPEL1V
Aircraft A339/H-SADE1E2E3GHIJ3J5M1P2RWXY/LB2D1

Departure

Time 2026-05-07 06:32
Airport Charles de Gaulle International Airport (LFPG)

Arrival

Time N/A
Airport Nouakchott–Oumtounsy International Airport (GQNO)
Time Latitude Longitude Altitude Speed Heading
2026-05-07 06:08 49.00285 2.58616 349 ft 0 kts 265°
2026-05-07 06:19 49.00286 2.58635 349 ft 2 kts 256°
2026-05-07 06:19 49.00291 2.58657 349 ft 2 kts 245°
2026-05-07 06:19 49.00298 2.58677 349 ft 2 kts 236°
2026-05-07 06:20 49.00307 2.58695 349 ft 2 kts 226°
2026-05-07 06:20 49.00318 2.58710 348 ft 2 kts 217°
2026-05-07 06:20 49.00331 2.58722 348 ft 2 kts 207°
2026-05-07 06:20 49.00344 2.58731 349 ft 2 kts 197°
2026-05-07 06:21 49.00358 2.58736 349 ft 2 kts 188°
2026-05-07 06:21 49.00373 2.58737 349 ft 2 kts 178°
2026-05-07 06:21 49.00384 2.58736 349 ft 0 kts 174°
2026-05-07 06:24 49.00374 2.58738 349 ft 2 kts 174°
2026-05-07 06:25 49.00344 2.58743 348 ft 5 kts 174°
2026-05-07 06:25 49.00295 2.58750 348 ft 8 kts 174°
2026-05-07 06:25 49.00229 2.58757 347 ft 10 kts 177°
2026-05-07 06:25 49.00147 2.58765 346 ft 12 kts 176°
2026-05-07 06:26 49.00080 2.58777 345 ft 9 kts 161°
2026-05-07 06:26 49.00042 2.58853 344 ft 9 kts 89°
2026-05-07 06:26 49.00045 2.58963 343 ft 11 kts 85°
2026-05-07 06:26 49.00053 2.59094 342 ft 13 kts 85°
2026-05-07 06:27 49.00059 2.59241 342 ft 14 kts 96°
2026-05-07 06:27 48.99992 2.59328 340 ft 11 kts 162°
2026-05-07 06:27 48.99976 2.59370 339 ft 4 kts 79°
2026-05-07 06:27 48.99979 2.59416 339 ft 5 kts 85°
2026-05-07 06:28 48.99982 2.59479 339 ft 7 kts 85°
2026-05-07 06:28 48.99987 2.59565 339 ft 8 kts 85°
2026-05-07 06:28 48.99994 2.59667 339 ft 10 kts 85°
2026-05-07 06:28 49.00000 2.59785 339 ft 11 kts 86°
2026-05-07 06:29 49.00006 2.59916 339 ft 13 kts 86°
2026-05-07 06:29 49.00013 2.60059 339 ft 13 kts 85°
2026-05-07 06:29 49.00017 2.60171 339 ft 8 kts 97°
2026-05-07 06:29 48.99983 2.60230 337 ft 8 kts 155°
2026-05-07 06:30 48.99918 2.60229 336 ft 10 kts 202°
2026-05-07 06:30 48.99849 2.60169 336 ft 10 kts 224°
2026-05-07 06:30 48.99826 2.60066 336 ft 6 kts 263°
2026-05-07 06:30 48.99826 2.60063 336 ft 1 kts 263°
2026-05-07 06:31 48.99803 2.59718 336 ft 66 kts 266°
2026-05-07 06:31 48.99755 2.58712 341 ft 122 kts 266°
2026-05-07 06:31 48.99679 2.57172 361 ft 167 kts 267°
2026-05-07 06:31 48.99571 2.55330 712 ft 180 kts 265°
2026-05-07 06:32 48.99422 2.53411 1178 ft 189 kts 264°
2026-05-07 06:32 48.99271 2.51455 1936 ft 183 kts 266°
2026-05-07 06:32 48.99161 2.49591 2540 ft 180 kts 268°
2026-05-07 06:32 48.99083 2.47645 2849 ft 193 kts 269°
2026-05-07 06:33 48.99004 2.45519 3145 ft 208 kts 269°
2026-05-07 06:33 48.98902 2.43233 3442 ft 225 kts 268°
2026-05-07 06:33 48.98779 2.40764 3759 ft 242 kts 268°
2026-05-07 06:33 48.98639 2.38153 4193 ft 253 kts 267°
2026-05-07 06:34 48.98492 2.35499 4789 ft 258 kts 267°
2026-05-07 06:34 48.98345 2.32834 5257 ft 268 kts 266°
2026-05-07 06:34 48.98189 2.30008 5915 ft 272 kts 265°
2026-05-07 06:34 48.98028 2.27131 6628 ft 274 kts 265°
2026-05-07 06:35 48.97866 2.24258 7329 ft 276 kts 265°
2026-05-07 06:35 48.97699 2.21349 8054 ft 278 kts 265°
2026-05-07 06:35 48.97532 2.18423 8782 ft 280 kts 265°
2026-05-07 06:35 48.97366 2.15506 9479 ft 282 kts 265°
2026-05-07 06:36 48.97195 2.12540 10165 ft 285 kts 265°
2026-05-07 06:36 48.97019 2.09478 10649 ft 296 kts 265°
2026-05-07 06:36 48.96836 2.06300 10954 ft 313 kts 265°
2026-05-07 06:36 48.96639 2.02912 11245 ft 329 kts 265°
2026-05-07 06:37 48.96433 1.99378 11634 ft 342 kts 265°
2026-05-07 06:37 48.96221 1.95796 12293 ft 346 kts 265°
2026-05-07 06:37 48.96003 1.92113 13014 ft 349 kts 265°
2026-05-07 06:37 48.95785 1.88441 13707 ft 351 kts 265°
2026-05-07 06:38 48.95566 1.84753 14380 ft 354 kts 265°
2026-05-07 06:38 48.95344 1.81055 14981 ft 359 kts 265°
2026-05-07 06:38 48.95110 1.77197 15482 ft 367 kts 265°
2026-05-07 06:38 48.94875 1.73331 16089 ft 372 kts 265°
2026-05-07 06:39 48.94638 1.69440 16728 ft 375 kts 265°
2026-05-07 06:39 48.94394 1.65467 17361 ft 378 kts 265°
2026-05-07 06:39 48.94149 1.61491 17973 ft 382 kts 265°
2026-05-07 06:39 48.93898 1.57459 18577 ft 386 kts 265°
2026-05-07 06:40 48.93645 1.53396 19179 ft 389 kts 265°
2026-05-07 06:40 48.93389 1.49334 19773 ft 392 kts 265°
2026-05-07 06:40 48.93127 1.45196 20366 ft 395 kts 265°
2026-05-07 06:40 48.92862 1.41036 20933 ft 398 kts 265°
2026-05-07 06:41 48.92594 1.36859 21476 ft 402 kts 265°
2026-05-07 06:41 48.92321 1.32630 22003 ft 405 kts 264°